Location: Butler
(32.5575°N, 84.2380°W)
Time: 21:39:02
(UTC+00:00)

N. Korean satellite - Pass Details

Date: 03 December 2021
Orbit: 447 x 490 km, 97.3° (Epoch: 27 January)

Event Time Altitude Azimuth Distance (km) Brightness Sun altitude
Rises 10:06:21 0° 28° (NNE) 2,452 10.4 -28.1°
Reaches altitude 10° 10:08:44 10° 45° (NE) 1,574 9.5 -27.6°
Maximum altitude 10:11:20 21° 96° (E) 1,065 9.0 -27.1°
Drops below altitude 10° 10:13:56 10° 147° (SSE) 1,567 9.6 -26.6°
Sets 10:16:18 0° 164° (SSE) 2,436 10.5 -26.1°
